Location: Newark
(45.0500°N, 41.9667°E)
Time: 21:43:57
(UTC+00:00)

OTV 5 (USA 277) - Visible Passes

Search period start: 22 October 2019 00:00
Search period end: 01 November 2019 00:00
Orbit: 310 x 324 km, 54.5° (Epoch: 17 October)

Date Brightness Start Highest point End Pass type
(mag) Time Alt. Az. Time Alt. Az. Time Alt. Az.
28 Oct ? 15:35:16 10° SSW 15:36:51 22° SSE 15:36:51 22° SSE visible
29 Oct ? 15:49:21 10° SW 15:51:22 44° SW 15:51:22 44° SW visible
30 Oct ? 14:30:42 10° S 14:32:33 17° SE 14:34:26 10° E visible
30 Oct ? 16:04:01 10° WSW 16:05:46 31° W 16:05:46 31° W visible
31 Oct ? 14:44:19 10° SSW 14:46:56 42° SE 14:49:09 13° ENE visible
31 Oct ? 16:19:03 10° W 16:20:03 17° WNW 16:20:03 17° WNW visible
